Find Starlink 32041

NORAD ID: 60202 Int'l Des: 2024-124 Owner: SPXS Country: US Constellation: starlink operational
LEOCIRCULAR

Live Position

Loading 3D Globe...

About Starlink 32041

Description loading...

Upcoming Passes

Passes for default location (London). Set your location on the main map for personalized predictions.

Altitude History

Loading altitude history...

Two-Line Element Set

1 60202U 24124V 26127.26515920 .00000566 00000-0 31244-4 0 9996
2 60202 53.1608 50.4282 0001251 70.1659 289.9476 15.30208295104468
Epoch: May 7, 2026 • Age: 15 hours

Current Status

Altitude 490.4 km
Velocity 7.62 km/s
Sub-Earth Point -43.49°S, 170°E
Launch Date Jul 3, 2024
Age 1.8 years
Type internet

Technical Details

Classification Payload
Mass 730.00 kg
Dry Mass 700.00 kg
Total Mass 730.00 kg
Length 0.30 m
Diameter 4.10 m
Span 29.00 m
Shape Box + pan
Manufacturer SPXS
Bus Type Starlink V2M
Phase Status In Orbit
Owner/State SPXS/US

Most Searched